Date String (YYYY-MM-DD hh:mm:ss) UTC,Instrument flags,absolute air pressure of the measurement (hPa),sample flow rate (lpm),inlet stack bypass flow (lpm),air temperature of the measurement (°C),ambient temperature measured by the external sensor (°C),aerosol sample conditioner tube jacket temperature (°C),OPC LED temperature (°C),internal box temperature (°C),relative humidity of the measurement (%),span deviation,mass concentration of particles derived from Lorenz-Mie calculation of OPC scattering (μg/m³),mass concentration of particles derived from Lorenz-Mie calculation of OPC scattering (μg/m³),mass concentration of particles derived from Lorenz-Mie calculation of OPC scattering (μg/m³)
DateTimeUTC,F1_M11,P_M11,Q1_M11,Q2_M11,T1_M11,T2_M11,T3_M11,T4_M11,T5_M11,U1_M11,ZSPAN_M11,X2_M11,X0_M11,X1_M11
2023-06-11 14:00:00,SystemResetWarning,0833.2,5.00,000.00,029.6,027.9,000.0,038.1,031.0,25.7,0000.0,0003.27,0007.06,0002.81
2023-06-11 14:01:00,SystemResetWarning,0833.2,5.01,000.00,029.6,027.9,000.0,038.1,031.0,25.8,0000.0,0003.24,0007.43,0002.80
2023-06-11 14:02:00,SystemResetWarning,0833.2,5.00,000.00,029.6,027.9,000.0,038.1,031.0,25.9,0000.0,0003.23,0007.38,0002.77
2023-06-11 14:03:00,SystemResetWarning,0833.2,5.00,000.00,029.6,027.9,000.0,038.1,031.0,25.9,0000.0,0003.21,0007.71,0002.73
2023-06-11 14:04:00,SystemResetWarning,0833.2,5.01,000.00,029.6,028.0,000.0,038.1,031.0,25.7,0000.0,0003.20,0007.55,0002.72
2023-06-11 14:05:00,SystemResetWarning,0833.2,5.00,000.00,029.6,028.0,000.0,038.1,031.0,25.7,0000.0,0003.21,0007.05,0002.75
2023-06-11 14:06:00,SystemResetWarning,0833.2,4.99,000.00,029.6,028.0,000.0,038.1,031.0,25.9,0000.0,0003.20,0007.37,0002.73
2023-06-11 14:07:00,SystemResetWarning,0833.2,5.01,000.00,029.6,028.0,000.0,038.1,031.0,25.7,0000.0,0003.20,0007.12,0002.73
2023-06-11 14:08:00,SystemResetWarning,0833.2,5.01,000.00,029.6,028.0,000.0,038.1,031.0,25.7,0000.0,0003.18,0007.10,0002.71
2023-06-11 14:09:00,SystemResetWarning,0833.2,5.01,000.00,029.6,028.0,000.0,038.1,031.0,25.7,0000.0,0003.16,0007.01,0002.70
2023-06-11 14:10:00,SystemResetWarning,0833.2,4.99,000.00,029.6,028.0,000.0,038.1,031.0,25.8,0000.0,0003.15,0007.00,0002.70
2023-06-11 14:11:00,SystemResetWarning,0833.2,4.99,000.00,029.6,028.0,000.0,038.1,031.1,25.8,0000.0,0003.18,0007.02,0002.72
2023-06-11 14:12:00,SystemResetWarning,0833.2,4.99,000.00,029.6,028.0,000.0,038.1,031.1,25.7,0000.0,0003.19,0006.31,0002.72
2023-06-11 14:13:00,SystemResetWarning,0833.2,5.00,000.00,029.6,028.0,000.0,038.1,031.1,25.8,0000.0,0003.21,0006.45,0002.74
2023-06-11 14:14:00,SystemResetWarning,0833.2,5.00,000.00,029.6,028.0,000.0,038.1,031.1,26.0,0000.0,0003.24,0006.02,0002.76
2023-06-11 14:15:00,SystemResetWarning,0833.2,5.00,000.00,029.6,028.0,000.0,038.1,031.1,26.0,0000.0,0003.24,0005.55,0002.76
2023-06-11 14:16:00,SystemResetWarning,0833.2,5.01,000.00,029.6,028.0,000.0,038.1,031.1,26.3,0000.0,0003.24,0005.61,0002.74
2023-06-11 14:17:00,SystemResetWarning,0833.2,5.00,000.00,029.6,028.0,000.0,038.1,031.0,26.5,0000.0,0003.24,0005.37,0002.74
2023-06-11 14:18:00,SystemResetWarning,0833.2,4.98,000.00,029.6,028.0,000.0,038.1,031.0,26.2,0000.0,0003.24,0004.92,0002.73
2023-06-11 14:19:00,SystemResetWarning,0833.2,5.01,000.00,029.6,028.0,000.0,038.1,031.1,26.1,0000.0,0003.25,0004.91,0002.75
2023-06-11 14:20:00,SystemResetWarning,0833.2,5.01,000.00,029.6,028.0,000.0,038.2,031.0,26.2,0000.0,0003.27,0005.02,0002.75
2023-06-11 14:21:00,SystemResetWarning,0833.2,5.00,000.00,029.6,028.0,000.0,038.2,031.0,26.4,0000.0,0003.28,0005.07,0002.73
2023-06-11 14:22:00,SystemResetWarning,0833.2,4.99,000.00,029.6,028.0,000.0,038.1,031.0,26.4,0000.0,0003.25,0004.94,0002.71
2023-06-11 14:23:00,SystemResetWarning,0833.2,4.99,000.00,029.6,028.0,000.0,038.1,031.0,26.2,0000.0,0003.22,0004.82,0002.71
2023-06-11 14:24:00,SystemResetWarning,0833.2,5.00,000.00,029.6,027.9,000.0,038.1,031.0,26.4,0000.0,0003.20,0004.68,0002.71
2023-06-11 14:25:00,SystemResetWarning,0833.2,5.01,000.00,029.6,027.9,000.0,038.1,031.0,26.2,0000.0,0003.16,0004.49,0002.70
2023-06-11 14:26:00,SystemResetWarning,0833.1,5.01,000.00,029.6,027.9,000.0,038.1,031.0,26.0,0000.0,0003.15,0004.48,0002.69
2023-06-11 14:27:00,SystemResetWarning,0833.2,4.99,000.00,029.6,027.9,000.0,038.1,031.0,26.1,0000.0,0003.14,0004.48,0002.68
2023-06-11 14:28:00,SystemResetWarning,0833.2,4.99,000.00,029.6,027.9,000.0,038.1,031.0,26.3,0000.0,0003.12,0004.29,0002.67
2023-06-11 14:29:00,SystemResetWarning,0833.2,5.00,000.00,029.6,027.9,000.0,038.1,031.0,26.1,0000.0,0003.11,0004.21,0002.67
2023-06-11 14:30:00,SystemResetWarning,0833.2,5.00,000.00,029.6,027.9,000.0,038.1,031.0,26.0,0000.0,0003.13,0004.43,0002.67
2023-06-11 14:31:00,SystemResetWarning,0833.2,5.00,000.00,029.6,027.9,000.0,038.1,031.0,26.0,0000.0,0003.12,0004.47,0002.66
2023-06-11 14:32:00,SystemResetWarning,0833.2,5.01,000.00,029.6,027.9,000.0,038.1,031.0,26.0,0000.0,0003.10,0004.39,0002.68
2023-06-11 14:33:00,SystemResetWarning,0833.2,5.00,000.00,029.6,028.0,000.0,038.1,031.0,26.2,0000.0,0003.11,0004.34,0002.68
2023-06-11 14:34:00,SystemResetWarning,0833.2,5.00,000.00,029.6,028.0,000.0,038.1,031.1,26.3,0000.0,0003.11,0004.35,0002.68
2023-06-11 14:35:00,SystemResetWarning,0833.2,5.00,000.00,029.6,028.0,000.0,038.1,031.1,26.3,0000.0,0003.11,0004.68,0002.67
2023-06-11 14:36:00,SystemResetWarning,0833.2,5.00,000.00,029.6,028.0,000.0,038.1,031.1,26.2,0000.0,0003.10,0004.66,0002.66
2023-06-11 14:37:00,SystemResetWarning,0833.2,5.00,000.00,029.6,028.0,000.0,038.2,031.1,26.2,0000.0,0003.10,0004.68,0002.66
2023-06-11 14:38:00,SystemResetWarning,0833.2,5.00,000.00,029.6,028.0,000.0,038.2,031.0,26.2,0000.0,0003.10,0005.35,0002.67
2023-06-11 14:39:00,SystemResetWarning,0833.2,5.00,000.00,029.6,028.0,000.0,038.2,031.1,26.2,0000.0,0003.10,0006.39,0002.68
2023-06-11 14:40:00,SystemResetWarning,0833.2,5.00,000.00,029.6,028.0,000.0,038.2,031.1,26.2,0000.0,0003.12,0006.58,0002.67
2023-06-11 14:41:00,SystemResetWarning,0833.2,5.00,000.00,029.6,028.1,000.0,038.2,031.1,26.1,0000.0,0003.10,0006.49,0002.67
2023-06-11 14:42:00,SystemResetWarning,0833.2,5.00,000.00,029.6,028.1,000.0,038.2,031.1,26.4,0000.0,0003.09,0006.28,0002.68
2023-06-11 14:43:00,SystemResetWarning,0833.2,5.00,000.00,029.6,028.1,000.0,038.2,031.1,26.5,0000.0,0003.11,0006.48,0002.65
2023-06-11 14:44:00,SystemResetWarning,0833.2,5.01,000.00,029.6,028.1,000.0,038.2,031.0,26.4,0000.0,0003.10,0006.49,0002.66
2023-06-11 14:45:00,SystemResetWarning,0833.2,5.00,000.00,029.6,028.1,000.0,038.2,031.1,26.5,0000.0,0003.09,0006.45,0002.65
2023-06-11 14:46:00,SystemResetWarning,0833.2,5.00,000.00,029.6,028.1,000.0,038.2,031.1,26.1,0000.0,0003.09,0006.18,0002.64
2023-06-11 14:47:00,SystemResetWarning,0833.2,5.00,000.00,029.6,028.1,000.0,038.2,031.1,26.1,0000.0,0003.12,0006.24,0002.65
2023-06-11 14:48:00,SystemResetWarning,0833.2,5.00,000.00,029.6,028.1,000.0,038.2,031.1,26.2,0000.0,0003.13,0007.11,0002.64
2023-06-11 14:49:00,SystemResetWarning,0833.2,4.99,000.00,029.6,028.1,000.0,038.2,031.1,26.3,0000.0,0003.15,0006.89,0002.62
2023-06-11 14:50:00,SystemResetWarning,0833.2,5.00,000.00,029.6,028.1,000.0,038.2,031.1,26.5,0000.0,0003.16,0005.62,0002.62
2023-06-11 14:51:00,SystemResetWarning,0833.2,5.00,000.00,029.6,028.1,000.0,038.2,031.1,26.6,0000.0,0003.14,0005.41,0002.63
2023-06-11 14:52:00,SystemResetWarning,0833.2,5.01,000.00,029.6,028.1,000.0,038.2,031.1,26.7,0000.0,0003.13,0005.33,0002.61
2023-06-11 14:53:00,SystemResetWarning,0833.2,5.01,000.00,029.6,028.1,000.0,038.2,031.1,26.5,0000.0,0003.14,0005.47,0002.60
2023-06-11 14:54:00,SystemResetWarning,0833.2,5.00,000.00,029.6,028.1,000.0,038.2,031.1,26.5,0000.0,0003.14,0005.52,0002.62
2023-06-11 14:55:00,SystemResetWarning,0833.2,5.00,000.00,029.6,028.1,000.0,038.2,031.1,26.3,0000.0,0003.15,0005.63,0002.64
2023-06-11 14:56:00,SystemResetWarning,0833.1,5.00,000.00,029.6,028.1,000.0,038.2,031.1,26.2,0000.0,0003.18,0005.71,0002.66
2023-06-11 14:57:00,SystemResetWarning,0833.2,5.00,000.00,029.6,028.1,000.0,038.2,031.1,26.3,0000.0,0003.17,0005.71,0002.65
2023-06-11 14:58:00,SystemResetWarning,0833.2,4.99,000.00,029.6,028.1,000.0,038.2,031.1,26.4,0000.0,0003.17,0005.70,0002.65
2023-06-11 14:59:00,SystemResetWarning,0833.2,5.02,000.00,029.6,028.1,000.0,038.2,031.1,26.3,0000.0,0003.18,0005.13,0002.67
